Location: �perlecques
(50.8057°N, 2.1521°E)
Time: 08:43:06
(UTC+00:00)

RESURS DK-1 - Pass Details

Date: 09 April 2020
Orbit: 557 x 561 km, 69.9° (Epoch: 01 June)

Event Time Altitude Azimuth Distance (km) Brightness Sun altitude
Rises 20:43:01 0° 329° (NNW) 2,762 7.2 -18.4°
Reaches altitude 10° 20:45:14 10° 332° (NNW) 1,862 6.1 -18.7°
Maximum altitude 20:49:24 71° 57° (ENE) 597 2.3 -19.2°
Enters shadow 20:50:19 51° 122° (ESE) 715 2.4 -19.3°
